Time,TemperatureF,DewpointF,PressureIn,WindDirection,WindDirectionDegrees,WindSpeedMPH,WindSpeedGustMPH,Humidity,HourlyPrecipIn,Conditions,Clouds,dailyrainin,SolarRadiationWatts/m^2,SoftwareType,DateUTC
2013-04-19 00:00:00,73.4,71.9,29.89,SSW,193,1.0,-999.0,95,0.00,,,0.00,0,Wunderground v.1.15,2013-04-19 05:00:00,
2013-04-19 00:06:00,73.4,71.9,29.89,SSE,148,1.0,-999.0,95,0.00,,,0.00,0,Wunderground v.1.15,2013-04-19 05:06:00,
2013-04-19 00:12:00,73.4,71.9,29.89,South,173,1.0,-999.0,95,0.00,,,0.00,0,Wunderground v.1.15,2013-04-19 05:12:00,
2013-04-19 00:18:00,73.3,71.8,29.89,South,175,2.0,-999.0,95,0.00,,,0.00,0,Wunderground v.1.15,2013-04-19 05:18:00,
2013-04-19 00:24:00,73.4,71.9,29.89,South,173,2.0,-999.0,95,0.00,,,0.00,0,Wunderground v.1.15,2013-04-19 05:24:00,
2013-04-19 00:30:00,73.3,71.8,29.89,ESE,123,2.0,-999.0,95,0.00,,,0.00,0,Wunderground v.1.15,2013-04-19 05:30:00,
2013-04-19 00:36:00,73.4,71.9,29.88,SE,125,2.0,-999.0,95,0.00,,,0.00,0,Wunderground v.1.15,2013-04-19 05:36:00,
2013-04-19 00:42:00,73.4,71.9,29.89,SSE,153,1.0,-999.0,95,0.00,,,0.00,0,Wunderground v.1.15,2013-04-19 05:42:00,
2013-04-19 00:48:00,73.4,71.9,29.89,SE,144,1.0,-999.0,95,0.00,,,0.00,0,Wunderground v.1.15,2013-04-19 05:48:00,
2013-04-19 00:54:00,73.4,71.9,29.89,South,179,1.0,-999.0,95,0.00,,,0.00,0,Wunderground v.1.15,2013-04-19 05:54:00,
2013-04-19 01:00:00,73.4,71.9,29.88,South,182,2.0,-999.0,95,0.00,,,0.00,0,Wunderground v.1.15,2013-04-19 06:00:00,
2013-04-19 01:06:00,73.4,71.9,29.89,South,190,1.0,-999.0,95,0.00,,,0.00,0,Wunderground v.1.15,2013-04-19 06:06:00,
2013-04-19 01:12:00,73.4,71.9,29.88,South,188,1.0,-999.0,95,0.00,,,0.00,0,Wunderground v.1.15,2013-04-19 06:12:00,
2013-04-19 01:18:00,73.5,72.0,29.88,SSE,164,1.0,-999.0,95,0.00,,,0.00,0,Wunderground v.1.15,2013-04-19 06:18:00,
2013-04-19 01:24:00,73.5,72.0,29.88,South,171,1.0,-999.0,95,0.00,,,0.00,0,Wunderground v.1.15,2013-04-19 06:24:00,
2013-04-19 01:30:00,73.5,72.0,29.87,South,175,1.0,-999.0,95,0.00,,,0.00,0,Wunderground v.1.15,2013-04-19 06:30:00,
2013-04-19 01:36:00,73.5,72.0,29.88,SE,135,1.0,-999.0,95,0.00,,,0.00,0,Wunderground v.1.15,2013-04-19 06:36:00,
2013-04-19 01:42:00,73.5,72.0,29.88,South,184,1.0,-999.0,95,0.00,,,0.00,0,Wunderground v.1.15,2013-04-19 06:42:00,
2013-04-19 01:48:00,73.5,72.0,29.87,SSE,153,1.0,-999.0,95,0.00,,,0.00,0,Wunderground v.1.15,2013-04-19 06:48:00,
2013-04-19 01:54:00,73.5,72.0,29.87,SSE,159,1.0,-999.0,95,0.00,,,0.00,0,Wunderground v.1.15,2013-04-19 06:54:00,
2013-04-19 02:00:00,73.5,72.0,29.86,SSE,164,1.0,-999.0,95,0.00,,,0.00,0,Wunderground v.1.15,2013-04-19 07:00:00,
2013-04-19 02:06:00,73.6,72.1,29.86,SE,131,1.0,-999.0,95,0.00,,,0.00,0,Wunderground v.1.15,2013-04-19 07:06:00,
2013-04-19 02:12:00,73.6,72.4,29.86,SE,129,1.0,-999.0,96,0.00,,,0.00,0,Wunderground v.1.15,2013-04-19 07:12:00,
2013-04-19 02:18:00,73.6,72.4,29.85,SE,125,2.0,-999.0,96,0.00,,,0.00,0,Wunderground v.1.15,2013-04-19 07:18:00,
2013-04-19 02:24:00,73.6,72.4,29.85,SSW,205,1.0,-999.0,96,0.00,,,0.00,0,Wunderground v.1.15,2013-04-19 07:24:00,
2013-04-19 02:30:00,73.7,72.5,29.85,SSE,167,2.0,-999.0,96,0.00,,,0.00,0,Wunderground v.1.15,2013-04-19 07:30:00,
2013-04-19 02:36:00,73.7,72.5,29.85,SSE,147,2.0,-999.0,96,0.00,,,0.00,0,Wunderground v.1.15,2013-04-19 07:36:00,
2013-04-19 02:42:00,73.7,72.5,29.85,South,188,2.0,-999.0,96,0.00,,,0.00,0,Wunderground v.1.15,2013-04-19 07:42:00,
2013-04-19 02:48:00,73.7,72.5,29.85,SSE,148,2.0,-999.0,96,0.00,,,0.00,0,Wunderground v.1.15,2013-04-19 07:48:00,
2013-04-19 02:54:00,73.8,72.6,29.84,East,97,2.0,-999.0,96,0.00,,,0.00,0,Wunderground v.1.15,2013-04-19 07:54:00,
2013-04-19 03:00:00,73.8,72.6,29.85,SSE,161,2.0,-999.0,96,0.00,,,0.00,0,Wunderground v.1.15,2013-04-19 08:00:00,
2013-04-19 03:06:00,73.8,72.6,29.85,SSW,209,1.0,-999.0,96,0.00,,,0.00,0,Wunderground v.1.15,2013-04-19 08:06:00,
2013-04-19 03:12:00,73.8,72.6,29.85,SE,144,2.0,-999.0,96,0.00,,,0.00,0,Wunderground v.1.15,2013-04-19 08:12:00,
2013-04-19 03:18:00,73.7,72.5,29.84,South,187,2.0,-999.0,96,0.00,,,0.00,0,Wunderground v.1.15,2013-04-19 08:18:00,
2013-04-19 03:24:00,73.7,72.5,29.85,SSW,196,2.0,-999.0,96,0.00,,,0.00,0,Wunderground v.1.15,2013-04-19 08:24:00,
2013-04-19 03:30:00,73.7,72.5,29.85,SSE,167,2.0,-999.0,96,0.00,,,0.00,0,Wunderground v.1.15,2013-04-19 08:30:00,
2013-04-19 03:36:00,73.7,72.5,29.85,ESE,116,3.0,-999.0,96,0.00,,,0.00,0,Wunderground v.1.15,2013-04-19 08:36:00,
2013-04-19 03:42:00,73.7,72.5,29.85,SSW,204,3.0,-999.0,96,0.00,,,0.00,0,Wunderground v.1.15,2013-04-19 08:42:00,
2013-04-19 03:48:00,73.7,72.5,29.85,SE,132,2.0,-999.0,96,0.00,,,0.00,0,Wunderground v.1.15,2013-04-19 08:48:00,
2013-04-19 03:54:00,73.7,72.5,29.85,SSE,160,2.0,-999.0,96,0.00,,,0.00,0,Wunderground v.1.15,2013-04-19 08:54:00,
2013-04-19 04:00:00,73.8,72.6,29.85,South,180,2.0,-999.0,96,0.00,,,0.00,0,Wunderground v.1.15,2013-04-19 09:00:00,
2013-04-19 04:06:00,73.8,72.6,29.84,SE,146,2.0,-999.0,96,0.00,,,0.00,0,Wunderground v.1.15,2013-04-19 09:06:00,
2013-04-19 04:12:00,73.8,72.6,29.84,SSW,212,2.0,-999.0,96,0.00,,,0.00,0,Wunderground v.1.15,2013-04-19 09:12:00,
2013-04-19 04:18:00,73.8,72.6,29.84,SSE,150,2.0,-999.0,96,0.00,,,0.00,0,Wunderground v.1.15,2013-04-19 09:18:00,
2013-04-19 04:24:00,73.7,72.5,29.84,South,175,2.0,-999.0,96,0.00,,,0.00,0,Wunderground v.1.15,2013-04-19 09:24:00,
2013-04-19 04:30:00,73.7,72.5,29.84,South,178,3.0,-999.0,96,0.00,,,0.00,0,Wunderground v.1.15,2013-04-19 09:30:00,
2013-04-19 04:36:00,73.7,72.5,29.84,SSW,202,3.0,-999.0,96,0.00,,,0.00,0,Wunderground v.1.15,2013-04-19 09:36:00,
2013-04-19 04:42:00,73.7,72.5,29.84,SE,144,3.0,-999.0,96,0.00,,,0.00,0,Wunderground v.1.15,2013-04-19 09:42:00,
2013-04-19 04:48:00,73.7,72.5,29.84,SSE,148,2.0,-999.0,96,0.00,,,0.00,0,Wunderground v.1.15,2013-04-19 09:48:00,
2013-04-19 04:54:00,73.7,72.5,29.84,SSW,193,2.0,-999.0,96,0.00,,,0.00,0,Wunderground v.1.15,2013-04-19 09:54:00,
2013-04-19 05:00:00,73.7,72.5,29.84,SSE,153,3.0,-999.0,96,0.00,,,0.00,0,Wunderground v.1.15,2013-04-19 10:00:00,
2013-04-19 05:06:00,73.7,72.5,29.84,South,173,2.0,-999.0,96,0.00,,,0.00,0,Wunderground v.1.15,2013-04-19 10:06:00,
2013-04-19 05:12:00,73.7,72.5,29.85,SSE,163,3.0,-999.0,96,0.00,,,0.00,0,Wunderground v.1.15,2013-04-19 10:12:00,
2013-04-19 05:18:00,73.7,72.5,29.84,East,96,2.0,-999.0,96,0.00,,,0.00,0,Wunderground v.1.15,2013-04-19 10:18:00,
2013-04-19 05:24:00,73.7,72.2,29.84,SW,234,2.0,-999.0,95,0.00,,,0.00,0,Wunderground v.1.15,2013-04-19 10:24:00,
2013-04-19 05:30:00,73.8,72.3,29.84,SW,229,2.0,-999.0,95,0.00,,,0.00,0,Wunderground v.1.15,2013-04-19 10:30:00,
2013-04-19 05:36:00,73.9,72.4,29.84,SSW,201,3.0,-999.0,95,0.00,,,0.00,0,Wunderground v.1.15,2013-04-19 10:36:00,
2013-04-19 05:42:00,73.9,72.4,29.84,SSW,197,3.0,-999.0,95,0.00,,,0.00,0,Wunderground v.1.15,2013-04-19 10:42:00,
2013-04-19 05:48:00,73.9,72.4,29.84,SSW,200,3.0,-999.0,95,0.00,,,0.00,0,Wunderground v.1.15,2013-04-19 10:48:00,
2013-04-19 05:54:00,74.0,72.5,29.84,SSW,202,3.0,-999.0,95,0.00,,,0.00,0,Wunderground v.1.15,2013-04-19 10:54:00,
2013-04-19 06:00:00,74.0,72.5,29.85,SW,216,3.0,-999.0,95,0.00,,,0.00,0,Wunderground v.1.15,2013-04-19 11:00:00,
2013-04-19 06:06:00,74.0,72.5,29.85,SSW,196,3.0,-999.0,95,0.00,,,0.00,0,Wunderground v.1.15,2013-04-19 11:06:00,
2013-04-19 06:12:00,74.0,72.5,29.85,SSW,207,2.0,-999.0,95,0.00,,,0.00,0,Wunderground v.1.15,2013-04-19 11:12:00,
2013-04-19 06:18:00,74.0,72.5,29.85,South,171,3.0,-999.0,95,0.00,,,0.00,0,Wunderground v.1.15,2013-04-19 11:18:00,
2013-04-19 06:24:00,74.0,72.5,29.85,SE,140,3.0,-999.0,95,0.00,,,0.00,0,Wunderground v.1.15,2013-04-19 11:24:00,
2013-04-19 06:30:00,74.1,72.6,29.86,South,184,2.0,-999.0,95,0.00,,,0.00,5,Wunderground v.1.15,2013-04-19 11:30:00,
2013-04-19 06:36:00,74.0,72.5,29.86,South,177,2.0,-999.0,95,0.00,,,0.00,0,Wunderground v.1.15,2013-04-19 11:36:00,
2013-04-19 06:42:00,74.0,72.5,29.86,SSW,210,2.0,-999.0,95,0.00,,,0.00,5,Wunderground v.1.15,2013-04-19 11:42:00,
2013-04-19 06:48:00,74.0,72.5,29.86,SSE,168,2.0,-999.0,95,0.00,,,0.00,9,Wunderground v.1.15,2013-04-19 11:48:00,
2013-04-19 06:54:00,74.0,72.5,29.87,SW,226,2.0,-999.0,95,0.00,,,0.00,19,Wunderground v.1.15,2013-04-19 11:54:00,
2013-04-19 07:00:00,74.1,72.6,29.87,SSW,201,2.0,-999.0,95,0.00,,,0.00,23,Wunderground v.1.15,2013-04-19 12:00:00,
2013-04-19 07:06:00,74.1,72.6,29.87,South,178,2.0,-999.0,95,0.00,,,0.00,19,Wunderground v.1.15,2013-04-19 12:06:00,
2013-04-19 07:12:00,74.2,72.7,29.87,SW,215,2.0,-999.0,95,0.00,,,0.00,26,Wunderground v.1.15,2013-04-19 12:12:00,
2013-04-19 07:18:00,74.2,72.7,29.87,SSW,202,2.0,-999.0,95,0.00,,,0.00,35,Wunderground v.1.15,2013-04-19 12:18:00,
2013-04-19 07:24:00,74.3,72.8,29.88,South,188,2.0,-999.0,95,0.00,,,0.00,25,Wunderground v.1.15,2013-04-19 12:24:00,
2013-04-19 07:30:00,74.3,72.8,29.88,SSE,159,2.0,-999.0,95,0.00,,,0.00,60,Wunderground v.1.15,2013-04-19 12:30:00,
2013-04-19 07:36:00,74.4,72.9,29.88,SE,140,2.0,-999.0,95,0.00,,,0.00,114,Wunderground v.1.15,2013-04-19 12:36:00,
2013-04-19 07:42:00,74.5,73.0,29.88,SSW,205,2.0,-999.0,95,0.00,,,0.00,33,Wunderground v.1.15,2013-04-19 12:42:00,
2013-04-19 07:48:00,74.6,73.1,29.88,SW,218,3.0,-999.0,95,0.00,,,0.00,102,Wunderground v.1.15,2013-04-19 12:48:00,
2013-04-19 07:54:00,74.8,73.3,29.88,SW,232,3.0,-999.0,95,0.00,,,0.00,77,Wunderground v.1.15,2013-04-19 12:54:00,
2013-04-19 08:00:00,74.9,73.4,29.88,SSW,211,2.0,-999.0,95,0.00,,,0.00,49,Wunderground v.1.15,2013-04-19 13:00:00,
2013-04-19 08:06:00,74.9,73.4,29.88,SSW,205,2.0,-999.0,95,0.00,,,0.01,26,Wunderground v.1.15,2013-04-19 13:06:00,
2013-04-19 08:12:00,74.8,73.3,29.88,ESE,117,2.0,-999.0,95,0.00,,,0.01,32,Wunderground v.1.15,2013-04-19 13:12:00,
2013-04-19 08:18:00,74.7,73.2,29.88,SSE,160,3.0,-999.0,95,0.00,,,0.01,62,Wunderground v.1.15,2013-04-19 13:18:00,
2013-04-19 08:24:00,74.3,72.8,29.90,NW,317,3.0,-999.0,95,0.00,,,0.01,18,Wunderground v.1.15,2013-04-19 13:24:00,
2013-04-19 08:30:00,71.7,68.9,29.90,NE,48,2.0,-999.0,91,0.00,,,0.01,23,Wunderground v.1.15,2013-04-19 13:30:00,
2013-04-19 08:36:00,69.8,66.7,29.91,SSW,202,2.0,-999.0,90,0.00,,,0.01,46,Wunderground v.1.15,2013-04-19 13:36:00,
2013-04-19 08:42:00,68.5,65.1,29.92,SW,223,1.0,-999.0,89,0.00,,,0.01,132,Wunderground v.1.15,2013-04-19 13:42:00,
2013-04-19 08:48:00,66.8,62.8,29.93,WSW,239,2.0,-999.0,87,0.00,,,0.01,95,Wunderground v.1.15,2013-04-19 13:48:00,
2013-04-19 08:54:00,65.6,61.6,29.93,NW,319,2.0,-999.0,87,0.00,,,0.01,148,Wunderground v.1.15,2013-04-19 13:54:00,
2013-04-19 09:00:00,64.4,60.1,29.94,SSW,204,2.0,-999.0,86,0.00,,,0.01,81,Wunderground v.1.15,2013-04-19 14:00:00,
2013-04-19 09:06:00,63.8,59.9,29.95,NW,306,2.0,-999.0,87,0.00,,,0.01,132,Wunderground v.1.15,2013-04-19 14:06:00,
2013-04-19 09:12:00,63.3,59.0,29.96,NE,52,3.0,-999.0,86,0.00,,,0.01,69,Wunderground v.1.15,2013-04-19 14:12:00,
2013-04-19 09:18:00,62.8,58.5,29.97,West,263,3.0,-999.0,86,0.00,,,0.01,47,Wunderground v.1.15,2013-04-19 14:18:00,
2013-04-19 09:24:00,62.4,58.5,29.97,West,272,3.0,-999.0,87,0.00,,,0.01,135,Wunderground v.1.15,2013-04-19 14:24:00,
2013-04-19 09:30:00,62.2,58.3,29.98,NNE,19,3.0,-999.0,87,0.00,,,0.01,95,Wunderground v.1.15,2013-04-19 14:30:00,
2013-04-19 09:36:00,62.2,58.3,29.99,WNW,287,3.0,-999.0,87,0.00,,,0.01,86,Wunderground v.1.15,2013-04-19 14:36:00,
2013-04-19 09:42:00,62.2,58.6,29.99,West,281,2.0,-999.0,88,0.00,,,0.01,130,Wunderground v.1.15,2013-04-19 14:42:00,
2013-04-19 09:48:00,62.0,58.1,29.98,ESE,120,3.0,-999.0,87,0.00,,,0.01,146,Wunderground v.1.15,2013-04-19 14:48:00,
2013-04-19 09:54:00,61.9,58.0,29.99,NW,311,2.0,-999.0,87,0.00,,,0.01,104,Wunderground v.1.15,2013-04-19 14:54:00,
2013-04-19 10:00:00,62.0,58.1,29.99,WSW,258,2.0,-999.0,87,0.00,,,0.01,207,Wunderground v.1.15,2013-04-19 15:00:00,
2013-04-19 10:06:00,61.8,57.6,29.99,NE,56,2.0,-999.0,86,0.00,,,0.01,202,Wunderground v.1.15,2013-04-19 15:06:00,
2013-04-19 10:12:00,61.8,57.6,29.99,ESE,109,3.0,-999.0,86,0.00,,,0.01,209,Wunderground v.1.15,2013-04-19 15:12:00,
2013-04-19 10:18:00,62.0,57.8,29.99,NW,309,2.0,-999.0,86,0.00,,,0.01,265,Wunderground v.1.15,2013-04-19 15:18:00,
2013-04-19 10:24:00,61.6,57.4,29.99,NW,311,3.0,-999.0,86,0.32,,,0.03,206,Wunderground v.1.15,2013-04-19 15:24:00,
2013-04-19 10:30:00,61.3,57.7,29.99,NNW,328,3.0,-999.0,88,0.08,,,0.03,362,Wunderground v.1.15,2013-04-19 15:30:00,
2013-04-19 10:36:00,61.0,57.1,29.99,NW,322,2.0,-999.0,87,0.04,,,0.03,336,Wunderground v.1.15,2013-04-19 15:36:00,
2013-04-19 10:42:00,60.9,56.7,29.99,NE,56,3.0,-999.0,86,0.00,,,0.03,202,Wunderground v.1.15,2013-04-19 15:42:00,
2013-04-19 10:48:00,60.7,56.5,30.00,East,94,3.0,-999.0,86,0.00,,,0.03,146,Wunderground v.1.15,2013-04-19 15:48:00,
2013-04-19 10:54:00,60.4,55.9,30.00,WNW,282,3.0,-999.0,85,0.00,,,0.03,74,Wunderground v.1.15,2013-04-19 15:54:00,
2013-04-19 11:00:00,60.1,55.6,30.01,NW,319,3.0,-999.0,85,0.00,,,0.03,63,Wunderground v.1.15,2013-04-19 16:00:00,
2013-04-19 11:06:00,60.0,55.2,30.01,ENE,63,3.0,-999.0,84,0.00,,,0.03,132,Wunderground v.1.15,2013-04-19 16:06:00,
2013-04-19 11:12:00,60.1,55.6,30.01,WNW,288,3.0,-999.0,85,0.00,,,0.03,127,Wunderground v.1.15,2013-04-19 16:12:00,
2013-04-19 11:18:00,60.1,55.6,30.01,West,270,3.0,-999.0,85,0.00,,,0.03,102,Wunderground v.1.15,2013-04-19 16:18:00,
2013-04-19 11:24:00,60.0,55.8,30.01,NE,43,2.0,-999.0,86,0.00,,,0.03,79,Wunderground v.1.15,2013-04-19 16:24:00,
2013-04-19 11:30:00,59.7,55.8,30.00,NNW,345,2.0,-999.0,87,0.00,,,0.04,111,Wunderground v.1.15,2013-04-19 16:30:00,
2013-04-19 11:36:00,59.5,55.9,29.99,NW,311,2.0,-999.0,88,0.15,,,0.06,171,Wunderground v.1.15,2013-04-19 16:36:00,
2013-04-19 11:42:00,59.3,56.1,29.99,WNW,302,2.0,-999.0,89,0.09,,,0.06,113,Wunderground v.1.15,2013-04-19 16:42:00,
2013-04-19 11:48:00,58.9,55.7,29.99,East,84,3.0,-999.0,89,0.05,,,0.06,107,Wunderground v.1.15,2013-04-19 16:48:00,
2013-04-19 11:54:00,58.9,56.0,29.99,WNW,298,2.0,-999.0,90,0.04,,,0.07,79,Wunderground v.1.15,2013-04-19 16:54:00,
2013-04-19 12:00:00,58.6,55.7,29.99,SSE,147,2.0,-999.0,90,0.12,,,0.09,72,Wunderground v.1.15,2013-04-19 17:00:00,
2013-04-19 12:06:00,58.6,56.0,29.98,West,279,2.0,-999.0,91,0.10,,,0.09,63,Wunderground v.1.15,2013-04-19 17:06:00,
2013-04-19 12:12:00,58.6,56.0,29.98,NE,49,2.0,-999.0,91,0.10,,,0.10,35,Wunderground v.1.15,2013-04-19 17:12:00,
2013-04-19 12:18:00,58.2,55.3,29.99,WNW,296,2.0,-999.0,90,0.05,,,0.10,32,Wunderground v.1.15,2013-04-19 17:18:00,
2013-04-19 12:24:00,57.8,54.6,29.99,NNE,23,2.0,-999.0,89,0.00,,,0.10,33,Wunderground v.1.15,2013-04-19 17:24:00,
2013-04-19 12:30:00,57.8,54.0,30.01,West,274,2.0,-999.0,87,0.00,,,0.10,30,Wunderground v.1.15,2013-04-19 17:30:00,
2013-04-19 12:36:00,58.0,54.5,30.02,WNW,301,2.0,-999.0,88,0.00,,,0.11,35,Wunderground v.1.15,2013-04-19 17:36:00,
2013-04-19 12:42:00,58.0,54.8,29.99,East,79,1.0,-999.0,89,0.06,,,0.12,47,Wunderground v.1.15,2013-04-19 17:42:00,
2013-04-19 12:48:00,57.7,54.2,30.00,NNW,332,2.0,-999.0,88,0.06,,,0.12,60,Wunderground v.1.15,2013-04-19 17:48:00,
2013-04-19 12:54:00,57.5,53.7,30.00,WNW,284,2.0,-999.0,87,0.05,,,0.12,121,Wunderground v.1.15,2013-04-19 17:54:00,
2013-04-19 13:00:00,57.7,54.2,30.00,WSW,240,2.0,-999.0,88,0.00,,,0.13,125,Wunderground v.1.15,2013-04-19 18:00:00,
2013-04-19 13:06:00,57.8,54.3,30.00,NNW,327,1.0,-999.0,88,0.00,,,0.13,135,Wunderground v.1.15,2013-04-19 18:06:00,
2013-04-19 13:12:00,57.7,53.9,30.01,NNW,339,2.0,-999.0,87,0.00,,,0.13,137,Wunderground v.1.15,2013-04-19 18:12:00,
2013-04-19 13:18:00,57.7,53.9,30.01,East,90,3.0,-999.0,87,0.00,,,0.13,120,Wunderground v.1.15,2013-04-19 18:18:00,
2013-04-19 13:24:00,57.9,54.4,30.01,SSE,168,2.0,-999.0,88,0.00,,,0.13,79,Wunderground v.1.15,2013-04-19 18:24:00,
2013-04-19 13:30:00,57.8,54.3,30.02,NW,304,2.0,-999.0,88,0.00,,,0.13,86,Wunderground v.1.15,2013-04-19 18:30:00,
2013-04-19 13:36:00,58.0,54.5,30.03,ESE,106,2.0,-999.0,88,0.00,,,0.13,91,Wunderground v.1.15,2013-04-19 18:36:00,
2013-04-19 13:42:00,57.9,54.4,30.04,NW,320,2.0,-999.0,88,0.00,,,0.13,125,Wunderground v.1.15,2013-04-19 18:42:00,
2013-04-19 13:48:00,57.7,54.2,30.04,WSW,250,3.0,-999.0,88,0.00,,,0.13,149,Wunderground v.1.15,2013-04-19 18:48:00,
2013-04-19 13:54:00,57.7,54.2,30.03,NNW,329,3.0,-999.0,88,0.00,,,0.13,144,Wunderground v.1.15,2013-04-19 18:54:00,
2013-04-19 14:00:00,57.5,53.7,30.00,NW,323,2.0,-999.0,87,0.00,,,0.13,165,Wunderground v.1.15,2013-04-19 19:00:00,
2013-04-19 14:06:00,57.4,53.9,30.02,WNW,295,3.0,-999.0,88,0.00,,,0.13,102,Wunderground v.1.15,2013-04-19 19:06:00,
2013-04-19 14:12:00,57.3,53.8,30.02,WSW,249,2.0,-999.0,88,0.00,,,0.13,67,Wunderground v.1.15,2013-04-19 19:12:00,
2013-04-19 14:18:00,57.3,53.5,30.00,East,90,2.0,-999.0,87,0.00,,,0.13,229,Wunderground v.1.15,2013-04-19 19:18:00,
2013-04-19 14:24:00,57.3,53.5,30.00,ENE,57,2.0,-999.0,87,0.00,,,0.13,373,Wunderground v.1.15,2013-04-19 19:24:00,
2013-04-19 14:30:00,57.8,54.0,29.99,South,171,2.0,-999.0,87,0.00,,,0.13,294,Wunderground v.1.15,2013-04-19 19:30:00,
2013-04-19 14:36:00,58.0,53.8,29.99,WNW,301,2.0,-999.0,86,0.00,,,0.13,367,Wunderground v.1.15,2013-04-19 19:36:00,
2013-04-19 14:42:00,58.1,53.9,29.99,North,11,3.0,-999.0,86,0.00,,,0.13,299,Wunderground v.1.15,2013-04-19 19:42:00,
2013-04-19 14:48:00,58.3,54.1,29.99,East,86,2.0,-999.0,86,0.00,,,0.13,364,Wunderground v.1.15,2013-04-19 19:48:00,
2013-04-19 14:54:00,58.3,53.8,30.00,NNW,329,2.0,-999.0,85,0.00,,,0.13,125,Wunderground v.1.15,2013-04-19 19:54:00,
2013-04-19 15:00:00,57.8,53.0,30.00,NW,315,3.0,-999.0,84,0.00,,,0.13,163,Wunderground v.1.15,2013-04-19 20:00:00,
2013-04-19 15:06:00,57.6,53.1,30.00,NW,312,2.0,-999.0,85,0.00,,,0.13,93,Wunderground v.1.15,2013-04-19 20:06:00,
2013-04-19 15:12:00,57.6,53.4,30.00,WNW,290,2.0,-999.0,86,0.00,,,0.13,44,Wunderground v.1.15,2013-04-19 20:12:00,
2013-04-19 15:18:00,57.4,53.2,29.99,NW,306,1.0,-999.0,86,0.00,,,0.13,35,Wunderground v.1.15,2013-04-19 20:18:00,
2013-04-19 15:24:00,57.1,53.0,30.00,NNW,344,1.0,-999.0,86,0.00,,,0.13,60,Wunderground v.1.15,2013-04-19 20:24:00,
2013-04-19 15:30:00,56.8,52.3,30.00,ENE,69,1.0,-999.0,85,0.00,,,0.13,49,Wunderground v.1.15,2013-04-19 20:30:00,
2013-04-19 15:36:00,56.6,52.5,30.00,SSW,196,1.0,-999.0,86,0.00,,,0.13,58,Wunderground v.1.15,2013-04-19 20:36:00,
2013-04-19 15:42:00,56.3,52.2,29.99,WNW,299,1.0,-999.0,86,0.00,,,0.13,74,Wunderground v.1.15,2013-04-19 20:42:00,
2013-04-19 15:48:00,56.4,52.6,30.00,ENE,69,1.0,-999.0,87,0.00,,,0.13,26,Wunderground v.1.15,2013-04-19 20:48:00,
2013-04-19 15:54:00,56.5,53.0,30.02,ESE,105,1.0,-999.0,88,0.00,,,0.13,16,Wunderground v.1.15,2013-04-19 20:54:00,
2013-04-19 16:00:00,56.4,52.9,30.03,WNW,292,1.0,-999.0,88,0.00,,,0.14,21,Wunderground v.1.15,2013-04-19 21:00:00,
2013-04-19 16:06:00,55.9,52.1,30.03,West,264,2.0,-999.0,87,0.12,,,0.16,32,Wunderground v.1.15,2013-04-19 21:06:00,
2013-04-19 16:12:00,55.6,52.1,30.03,West,269,2.0,-999.0,88,0.09,,,0.17,23,Wunderground v.1.15,2013-04-19 21:12:00,
2013-04-19 16:18:00,55.4,52.2,30.02,NE,34,1.0,-999.0,89,0.09,,,0.17,23,Wunderground v.1.15,2013-04-19 21:18:00,
2013-04-19 16:24:00,55.3,52.1,30.01,East,88,1.0,-999.0,89,0.05,,,0.17,37,Wunderground v.1.15,2013-04-19 21:24:00,
2013-04-19 16:30:00,55.3,52.4,30.02,WNW,302,1.0,-999.0,90,0.17,,,0.19,21,Wunderground v.1.15,2013-04-19 21:30:00,
2013-04-19 16:36:00,55.1,52.2,30.04,NNW,335,1.0,-999.0,90,0.07,,,0.19,14,Wunderground v.1.15,2013-04-19 21:36:00,
2013-04-19 16:42:00,54.6,51.4,30.06,SSE,155,1.0,-999.0,89,0.05,,,0.20,16,Wunderground v.1.15,2013-04-19 21:42:00,
2013-04-19 16:48:00,54.3,51.1,30.05,WNW,291,1.0,-999.0,89,0.09,,,0.21,11,Wunderground v.1.15,2013-04-19 21:48:00,
2013-04-19 16:54:00,54.3,51.4,30.03,NW,308,1.0,-999.0,90,0.09,,,0.21,18,Wunderground v.1.15,2013-04-19 21:54:00,
2013-04-19 17:00:00,53.9,50.7,30.02,North,349,1.0,-999.0,89,0.05,,,0.21,11,Wunderground v.1.15,2013-04-19 22:00:00,
2013-04-19 17:06:00,53.6,50.4,30.03,NW,320,1.0,-999.0,89,0.00,,,0.21,12,Wunderground v.1.15,2013-04-19 22:06:00,
2013-04-19 17:12:00,53.5,50.3,30.03,WNW,288,1.0,-999.0,89,0.00,,,0.21,14,Wunderground v.1.15,2013-04-19 22:12:00,
2013-04-19 17:18:00,53.2,50.0,30.05,ENE,70,1.0,-999.0,89,0.13,,,0.23,18,Wunderground v.1.15,2013-04-19 22:18:00,
2013-04-19 17:24:00,53.2,50.0,30.04,NW,326,2.0,-999.0,89,0.12,,,0.24,21,Wunderground v.1.15,2013-04-19 22:24:00,
2013-04-19 17:30:00,53.0,49.8,30.03,North,355,2.0,-999.0,89,0.08,,,0.24,21,Wunderground v.1.15,2013-04-19 22:30:00,
2013-04-19 17:36:00,52.7,49.5,30.01,WNW,291,2.0,-999.0,89,0.04,,,0.24,12,Wunderground v.1.15,2013-04-19 22:36:00,
2013-04-19 17:42:00,52.8,49.6,30.02,NW,305,1.0,-999.0,89,0.00,,,0.25,12,Wunderground v.1.15,2013-04-19 22:42:00,
2013-04-19 17:48:00,52.9,50.0,30.01,North,349,1.0,-999.0,90,0.00,,,0.25,16,Wunderground v.1.15,2013-04-19 22:48:00,
2013-04-19 17:54:00,53.1,50.2,30.00,NE,38,1.0,-999.0,90,0.00,,,0.25,16,Wunderground v.1.15,2013-04-19 22:54:00,
2013-04-19 18:00:00,53.1,50.2,30.02,WNW,299,1.0,-999.0,90,0.00,,,0.25,12,Wunderground v.1.15,2013-04-19 23:00:00,
2013-04-19 18:06:00,53.1,50.2,30.04,North,11,0.0,-999.0,90,0.00,,,0.25,12,Wunderground v.1.15,2013-04-19 23:06:00,
2013-04-19 18:12:00,53.2,50.3,30.04,WNW,300,1.0,-999.0,90,0.00,,,0.26,7,Wunderground v.1.15,2013-04-19 23:12:00,
2013-04-19 18:18:00,53.3,50.4,30.03,NE,49,0.0,-999.0,90,0.00,,,0.26,7,Wunderground v.1.15,2013-04-19 23:18:00,
2013-04-19 18:24:00,53.2,50.3,30.04,East,80,0.0,-999.0,90,0.05,,,0.26,0,Wunderground v.1.15,2013-04-19 23:24:00,
2013-04-19 18:30:00,53.4,50.5,30.06,WNW,284,0.0,-999.0,90,0.05,,,0.27,0,Wunderground v.1.15,2013-04-19 23:30:00,
2013-04-19 18:36:00,53.5,50.9,30.08,WNW,299,1.0,-999.0,91,0.06,,,0.28,0,Wunderground v.1.15,2013-04-19 23:36:00,
2013-04-19 18:42:00,53.3,50.7,30.08,NW,321,2.0,-999.0,91,0.06,,,0.28,0,Wunderground v.1.15,2013-04-19 23:42:00,
2013-04-19 18:48:00,53.1,50.5,30.08,ENE,61,2.0,-999.0,91,0.06,,,0.29,0,Wunderground v.1.15,2013-04-19 23:48:00,
2013-04-19 18:54:00,52.9,50.3,30.07,North,5,1.0,-999.0,91,0.06,,,0.29,0,Wunderground v.1.15,2013-04-19 23:54:00,
2013-04-19 19:00:00,52.8,50.2,30.07,SW,235,1.0,-999.0,91,0.13,,,0.31,0,Wunderground v.1.15,2013-04-20 00:00:00,
2013-04-19 19:06:00,52.6,50.0,30.07,NE,55,1.0,-999.0,91,0.09,,,0.31,0,Wunderground v.1.15,2013-04-20 00:06:00,
2013-04-19 19:12:00,52.7,50.4,30.05,NE,42,1.0,-999.0,92,0.06,,,0.32,0,Wunderground v.1.15,2013-04-20 00:12:00,
2013-04-19 19:18:00,52.7,50.4,30.05,WNW,292,0.0,-999.0,92,0.06,,,0.32,0,Wunderground v.1.15,2013-04-20 00:18:00,
2013-04-19 19:24:00,52.7,50.4,30.07,SSE,159,0.0,-999.0,92,0.04,,,0.32,0,Wunderground v.1.15,2013-04-20 00:24:00,
2013-04-19 19:30:00,52.8,50.5,30.08,South,191,0.0,-999.0,92,0.00,,,0.32,0,Wunderground v.1.15,2013-04-20 00:30:00,
2013-04-19 19:36:00,52.8,50.5,30.09,South,191,0.0,-999.0,92,0.00,,,0.33,0,Wunderground v.1.15,2013-04-20 00:36:00,
2013-04-19 19:42:00,53.0,50.7,30.09,WSW,246,0.0,-999.0,92,0.00,,,0.33,0,Wunderground v.1.15,2013-04-20 00:42:00,
2013-04-19 19:48:00,53.1,51.1,30.08,NW,317,1.0,-999.0,93,0.00,,,0.33,0,Wunderground v.1.15,2013-04-20 00:48:00,
2013-04-19 19:54:00,53.0,51.0,30.08,East,94,0.0,-999.0,93,0.00,,,0.33,0,Wunderground v.1.15,2013-04-20 00:54:00,
2013-04-19 20:00:00,53.0,51.0,30.08,NW,321,0.0,-999.0,93,0.00,,,0.34,0,Wunderground v.1.15,2013-04-20 01:00:00,
2013-04-19 20:06:00,53.0,51.0,30.09,West,273,0.0,-999.0,93,0.08,,,0.35,0,Wunderground v.1.15,2013-04-20 01:06:00,
2013-04-19 20:12:00,52.9,50.9,30.10,NW,306,1.0,-999.0,93,0.08,,,0.35,0,Wunderground v.1.15,2013-04-20 01:12:00,
2013-04-19 20:18:00,53.1,51.1,30.10,NNW,343,1.0,-999.0,93,0.04,,,0.35,0,Wunderground v.1.15,2013-04-20 01:18:00,
2013-04-19 20:24:00,53.0,51.0,30.11,SW,234,1.0,-999.0,93,0.00,,,0.35,0,Wunderground v.1.15,2013-04-20 01:24:00,
2013-04-19 20:30:00,53.0,51.0,30.13,WNW,300,1.0,-999.0,93,0.00,,,0.35,0,Wunderground v.1.15,2013-04-20 01:30:00,
2013-04-19 20:36:00,53.1,51.1,30.12,NE,37,1.0,-999.0,93,0.00,,,0.35,0,Wunderground v.1.15,2013-04-20 01:36:00,
2013-04-19 20:42:00,53.1,51.1,30.11,NW,304,0.0,-999.0,93,0.00,,,0.35,0,Wunderground v.1.15,2013-04-20 01:42:00,
2013-04-19 20:48:00,53.1,51.1,30.11,WNW,296,0.0,-999.0,93,0.00,,,0.35,0,Wunderground v.1.15,2013-04-20 01:48:00,
2013-04-19 20:54:00,53.0,51.0,30.12,NW,309,1.0,-999.0,93,0.00,,,0.35,0,Wunderground v.1.15,2013-04-20 01:54:00,
2013-04-19 21:00:00,53.2,51.2,30.12,NW,323,1.0,-999.0,93,0.00,,,0.35,0,Wunderground v.1.15,2013-04-20 02:00:00,
2013-04-19 21:06:00,53.1,51.1,30.12,NW,322,0.0,-999.0,93,0.00,,,0.35,0,Wunderground v.1.15,2013-04-20 02:06:00,
2013-04-19 21:12:00,53.0,51.0,30.11,NE,35,1.0,-999.0,93,0.00,,,0.35,0,Wunderground v.1.15,2013-04-20 02:12:00,
2013-04-19 21:18:00,53.0,51.0,30.11,WNW,303,1.0,-999.0,93,0.00,,,0.35,0,Wunderground v.1.15,2013-04-20 02:18:00,
2013-04-19 21:24:00,53.1,51.1,30.15,SE,143,1.0,-999.0,93,0.00,,,0.35,0,Wunderground v.1.15,2013-04-20 02:24:00,
2013-04-19 21:30:00,53.0,50.7,30.14,WNW,302,1.0,-999.0,92,0.00,,,0.35,0,Wunderground v.1.15,2013-04-20 02:30:00,
2013-04-19 21:36:00,53.0,50.7,30.15,SE,146,0.0,-999.0,92,0.00,,,0.35,0,Wunderground v.1.15,2013-04-20 02:36:00,
2013-04-19 21:42:00,53.0,50.7,30.14,SW,221,0.0,-999.0,92,0.00,,,0.35,0,Wunderground v.1.15,2013-04-20 02:42:00,
2013-04-19 21:48:00,52.8,50.2,30.15,NW,313,1.0,-999.0,91,0.00,,,0.35,0,Wunderground v.1.15,2013-04-20 02:48:00,
2013-04-19 21:54:00,53.0,50.4,30.14,ENE,67,0.0,-999.0,91,0.00,,,0.35,0,Wunderground v.1.15,2013-04-20 02:54:00,
2013-04-19 22:00:00,53.2,50.3,30.15,NW,309,1.0,-999.0,90,0.00,,,0.35,0,Wunderground v.1.15,2013-04-20 03:00:00,
2013-04-19 22:06:00,53.3,50.4,30.14,WNW,301,1.0,-999.0,90,0.00,,,0.35,0,Wunderground v.1.15,2013-04-20 03:06:00,
2013-04-19 22:12:00,53.3,50.4,30.15,WNW,291,1.0,-999.0,90,0.00,,,0.35,0,Wunderground v.1.15,2013-04-20 03:12:00,
2013-04-19 22:18:00,53.3,50.4,30.15,West,281,1.0,-999.0,90,0.00,,,0.35,0,Wunderground v.1.15,2013-04-20 03:18:00,
2013-04-19 22:24:00,53.2,50.3,30.14,NNW,343,1.0,-999.0,90,0.00,,,0.35,0,Wunderground v.1.15,2013-04-20 03:24:00,
2013-04-19 22:30:00,53.3,50.4,30.14,ENE,75,1.0,-999.0,90,0.00,,,0.35,0,Wunderground v.1.15,2013-04-20 03:30:00,
2013-04-19 22:36:00,53.3,50.4,30.15,NNW,329,1.0,-999.0,90,0.00,,,0.35,0,Wunderground v.1.15,2013-04-20 03:36:00,
2013-04-19 22:42:00,53.3,50.1,30.14,NW,305,1.0,-999.0,89,0.00,,,0.35,0,Wunderground v.1.15,2013-04-20 03:42:00,
2013-04-19 22:48:00,53.3,50.4,30.15,NW,314,1.0,-999.0,90,0.00,,,0.35,0,Wunderground v.1.15,2013-04-20 03:48:00,
2013-04-19 22:54:00,53.2,50.3,30.15,NW,304,1.0,-999.0,90,0.00,,,0.35,0,Wunderground v.1.15,2013-04-20 03:54:00,
2013-04-19 23:00:00,53.1,49.9,30.16,WNW,288,1.0,-999.0,89,0.00,,,0.35,0,Wunderground v.1.15,2013-04-20 04:00:00,
2013-04-19 23:02:00,53.1,49.9,30.16,ESE,121,1.0,-999.0,89,0.00,,,0.35,0,Wunderground v.1.15,2013-04-20 04:02:00,
2013-04-19 23:04:00,53.1,49.9,30.16,ENE,68,1.0,-999.0,89,0.00,,,0.35,0,Wunderground v.1.15,2013-04-20 04:04:00,
2013-04-19 23:08:00,53.1,49.9,30.16,ENE,64,0.0,-999.0,89,0.00,,,0.35,0,Wunderground v.1.15,2013-04-20 04:08:00,
2013-04-19 23:10:00,53.0,49.8,30.16,WNW,290,0.0,-999.0,89,0.00,,,0.35,0,Wunderground v.1.15,2013-04-20 04:10:00,
2013-04-19 23:16:00,53.0,49.8,30.15,WNW,299,1.0,-999.0,89,0.00,,,0.35,0,Wunderground v.1.15,2013-04-20 04:16:00,
2013-04-19 23:18:00,53.0,49.8,30.15,NNW,345,1.0,-999.0,89,0.00,,,0.35,0,Wunderground v.1.15,2013-04-20 04:18:00,
2013-04-19 23:24:00,53.0,49.5,30.16,ENE,59,1.0,-999.0,88,0.00,,,0.35,0,Wunderground v.1.15,2013-04-20 04:24:00,
2013-04-19 23:30:00,53.1,49.6,30.16,NE,52,1.0,-999.0,88,0.00,,,0.35,0,Wunderground v.1.15,2013-04-20 04:30:00,
2013-04-19 23:36:00,53.1,49.6,30.16,West,280,1.0,-999.0,88,0.00,,,0.35,0,Wunderground v.1.15,2013-04-20 04:36:00,
2013-04-19 23:42:00,53.1,49.6,30.16,NW,306,0.0,-999.0,88,0.00,,,0.35,0,Wunderground v.1.15,2013-04-20 04:42:00,
2013-04-19 23:48:00,53.1,49.3,30.16,ENE,71,1.0,-999.0,87,0.00,,,0.35,0,Wunderground v.1.15,2013-04-20 04:48:00,
2013-04-19 23:54:00,53.2,49.4,30.16,East,97,1.0,-999.0,87,0.00,,,0.35,0,Wunderground v.1.15,2013-04-20 04:54:00,